Location: Northam
(31.6525°S, 116.6655°E)
Time: 18:44:14
(UTC+08:00)

AAUSAT CUBESAT 2 - Pass Details

Date: 30 July 2021
Orbit: 572 x 587 km, 97.5° (Epoch: 18 September)

Event Time Altitude Azimuth Distance (km) Brightness Sun altitude
Rises 18:21:29 0° 187° (S) 2,850 ? -9.9°
Reaches altitude 10° 18:24:06 10° 203° (SSW) 1,940 ? -10.4°
Maximum altitude 18:27:12 20° 251° (WSW) 1,381 ? -11.0°
Drops below altitude 10° 18:30:17 10° 298° (WNW) 1,919 ? -11.7°
Sets 18:32:51 0° 315° (NW) 2,808 ? -12.2°
